Regional Weather Roundup
Issued by NWS Charleston, SC

Current Version | Previous Version | Graphics & Text | Print | Product List | Glossary On
Versions: 1 2 3 4 5 6 7 8 9 10 11 12 13 14 15 16 17 18 19 20 21 22 23 24 25 26 27 28 29 30 31 32 33 34 35 36 37 38 39 40 41 42 43 44 45 46 47 48 49 50
000
ASUS42 KCHS 271812
RWRCHS

REGIONAL WEATHER ROUNDUP
NATIONAL WEATHER SERVICE CHARLESTON SC
200 PM EDT TUE JUN 27 2017

NOTE: "FAIR" INDICATES FEW OR NO CLOUDS BELOW 12,000 FEET WITH NO
SIGNIFICANT WEATHER AND/OR OBSTRUCTIONS TO VISIBILITY.

NOT ALL STATIONS ARE QUALITY CONTROLLED. USE DATA WITH CAUTION...
ESPECIALLY DEWPOINT OBSERVATIONS.

SCZ027-030-031-034>040-042>050-271900-
...SOUTHEAST SOUTH CAROLINA...

CITY           SKY/WX    TMP DP  RH WIND       PRES   REMARKS
N CHARLESTON   MOSUNNY   87  63  44 NE8       30.02F
6HR MIN TEMP:  75; 6HR MAX TEMP:  87;

WATERFRONT PRK   N/A     85  68  56 SE8       30.02F
JOHNS ISLAND   FAIR      84  66  54 SE10      30.03F
PINOPOLIS        N/A     86  61  42 CALM      29.97F
MONCKS CORNER  FAIR      84  55  37 NE6       30.03F
SUMMERVILLE    FAIR      86  63  45 CALM      30.04F
BEAUFORT MCAS  CLOUDY    86  69  56 E8        30.02F HX  90
6HR MIN TEMP:  77; 6HR MAX TEMP:  87;

BEAUFORT ARPT  LGT RAIN  81  68  65 E6        30.02F
HILTON HEAD IS DRIZZLE   82  70  65 E8        30.03F
WALTERBORO     CLOUDY    84  63  48 N3        30.04S
ALLENDALE      FAIR      86  63  45 CALM      30.02F

...SOUTHERN MIDLANDS AND PEE DEE...

CITY           SKY/WX    TMP DP  RH WIND       PRES   REMARKS
GEORGETOWN     FAIR      84  64  51 SE6       30.04F
KINGSTREE      FAIR      84  61  45 CALM      30.03F
ORANGEBURG     PTSUNNY   84  60  44 SE3       30.03F
BARNWELL       MOCLDY    86  64  48 NE5       30.03F
AIKEN          FAIR      82  59  44 N10       30.09S
MANNING        FAIR      84  59  42 SW6       30.03F
COLUMBIA       CLOUDY    86  60  41 NE8       30.04F
6HR MIN TEMP:  70; 6HR MAX TEMP:  86;

SUMTER         NOT AVBL
FLORENCE       PTSUNNY   85  62  46 N10       30.03F
6HR MIN TEMP:  70; 6HR MAX TEMP:  87;

MYRTLE BEACH   MOSUNNY   82  66  57 SE12      30.04F
N MYRTLE BEACH CLOUDY    83  67  58 S8        30.03S
6HR MIN TEMP:  72; 6HR MAX TEMP:  85;


$$

GAZ063-065-086>088-099>101-113>116-118-119-134>141-150-271900-
...SOUTHEAST GEORGIA...

CITY           SKY/WX    TMP DP  RH WIND       PRES   REMARKS
SAVANNAH ARPT  TSTM      75  70  84 NE5       30.03S
6HR MIN TEMP:  75; 6HR MAX TEMP:  86; 6HR PCP:  0.07;

HUNTER AAF     CLOUDY    81  72  74 NE3       30.00
FORT STEWART   PTSUNNY   86  70  58 NW17      30.00S THUNDER HX  90
6HR MIN TEMP:  75; 6HR MAX TEMP:  87; 6HR PCP:  0.01;

STATESBORO     CLOUDY    86  67  53 N7        30.04S
SYLVANIA       CLOUDY    87  69  55 NE5       30.04F HX  91
CLAXTON        FAIR      84  68  58 N7        30.02F

...CSRA...CENTRAL AND FAR SOUTHEAST GEORGIA...

CITY           SKY/WX    TMP DP  RH WIND       PRES   REMARKS
THOMSON        CLOUDY    82  58  44 E3        30.11F
AUGUSTA-BUSH   MOSUNNY   89  60  37 NE8       30.03F
6HR MIN TEMP:  71; 6HR MAX TEMP:  89;

AUGUSTA-DANIEL MOSUNNY   88  55  32 VRB3      30.05F
SWAINSBORO     FAIR      84  64  51 NE3       30.05F
VIDALIA        MOSUNNY   86  70  58 N7        30.04F HX  90
EASTMAN        MOCLDY    85  55  34 E7        30.07F
HAZLEHURST     MOCLDY    87  72  60 N9        30.02S HX  93
ALMA           MOSUNNY   87  71  58 NE6       30.01F HX  93
6HR MIN TEMP:  73; 6HR MAX TEMP:  88;

WAYCROSS       PTSUNNY   89  76  64 NW5       30.00F HX  99
JESUP          MOCLDY    84  72  65 CALM      30.01F
BAXLEY         FAIR      88  73  62 NE6       30.01S HX  96
BRUNSWICK      PTSUNNY   84  73  70 E17       30.02F HX  91
SAINT SIMONS   LGT RAIN  77  75  93 E12       30.01F FOG
6HR MIN TEMP:  75; 6HR MAX TEMP:  84; 6HR PCP:  0.58;


$$

SCZ027-028-034-036>038-045-046-048>050-GAZ119-141-271900-
...LAKE AND SUPPLEMENTAL COASTAL OBSERVATIONS...

STATION/POSITION TIME  TEMP    WIND        PRES    WAVE   SWELL
                       AIR SEA DIR/SP/G            HT/PER HT/PER/DIR
                 (UTC) (F)     (DEG/KT/KT) (MB)    (FT/S) (FT/S/D)
WINYAH BAY       NOT AVBL
LAKE MURRAY      1720   82      CALM  /  4 1016.6
ACE BASIN NERRS  1645   84      20/  2     1017.0
FORT PULASKI     1742   81 83  110/ 11/ 15 1016.7F
SAPELO ISLAND    1700   79      70/  6     1017.0

$$

ANZ835-935-AMZ111-154-330-350-352-354-370-450-454-472-271900-
...C-MAN AND BUOY OBSERVATIONS...

STATION/POSITION TIME  TEMP    WIND        PRES    WAVE   SWELL
                       AIR SEA DIR/SP/G            HT/PER HT/PER/DIR
                 (UTC) (F)     (DEG/KT/KT) (MB)    (FT/S) (FT/S/D)
BUOY 41004       1750   79 81   50/  8/ 10 1016.9S   2/ 8   2/130/ 8
BUOY 41008       1750   80 82   50/ 12/ 16 1016.0F   1/ 8   2/120/ 8
FOLLY BEACH CMAN 1700   82      80/  5/  6 1018.2R
CAPERS NEARSHORE 1708   86 83   50/  4/  6 1017.4R
FRIPP NEARSHORE  1708   81 83   80/  8/ 12 1016.6F


STATION/POSITION TIME  TEMP    WIND        PRES    WAVE   SWELL
                       AIR SEA DIR/SP/G            HT/PER HT/PER/DIR
                 (UTC) (F)     (DEG/KT/KT) (MB)    (FT/S) (FT/S/D)
5E ST. MARYS GA  1730      80                N/A     2/ 8
FRYING PAN BUOY  1750   80 81   20/  4/  4 1016.8F   1/ 8   2/140/ 8
BUOY 41025       1750   79 81   10/  4/  4 1016.4F   2/ 7   2/ 70/ 7
CAPE LOOKOUT NC  1700   79     150/  7/  8 1016.5F
BUOY 41002       1650   77 80  280/  8/ 10 1017.3    3/ 6   3/220/ 6
BUOY 41010       1750   83 84  220/ 10/ 12 1016.1F   3/ 8   2/140/ 8
ST AUGUSTINE FL  1800   79 79   40/ 12/ 13 1015.9F


$$




USA.gov is the U.S. government's official web portal to all federal, state and local government web resources and services.